Weather History for Marion, IN

Change the Weather History Date:

Sunday, November 18, 2012

  Actual Average (KMIE) Record (KMIE)
Temperature  
Mean Temperature 44 °F 42 °F  
Max Temperature 92 °F 50 °F 72 °F (1971)
Min Temperature 32 °F 33 °F 18 °F (1989)
Degree Days  
Heating Degree Days 20 23  
Month to date heating degree days 354  
Since 1 July heating degree days 818  
Cooling Degree Days 0 0  
Month to date cooling degree days 0  
Year to date cooling degree days 955  
Moisture  
Dew Point 30 °F    
Average Humidity 62    
Maximum Humidity 85    
Minimum Humidity 35    
Precipitation  
Precipitation 0.00 in 0.13 in 0.86 in (1969)
Month to date precipitation 2.04  
Year to date precipitation 35.83  
Sea Level Pressure  
Sea Level Pressure 30.42 in    
Wind  
Wind Speed 5 mph (East)    
Max Wind Speed 9 mph    
Max Gust Speed -    
Visibility 5 miles    
Events Snow    
T = Trace of Precipitation, MM = Missing Value Source: NWS Daily Summary

Daily Weather History Graph

Daily Weather History Graph

Search for Another Location

Airport:

Trip Planner

Search our weather history database for the weather conditions in past years. The results will help you decide how hot, cold, wet, or windy it might be!

Date:

Astronomy

Nov. 18, 2012 Rise Set
Actual Time 7:33 AM EST 5:22 PM EST
Civil Twilight 7:03 AM EST 5:52 PM EST
Nautical Twilight 6:30 AM EST 6:25 PM EST
Astronomical Twilight 5:57 AM EST 6:57 PM EST
Moon 11:59 AM EST (11/18) 10:41 PM EST (11/18)
Length of Visible Light 10h 48m
Length of Day
9h 49m
Waxing Crescent, 30% of the Moon is Illuminated
Nov 18
Waxing Crescent
Nov 20
First Quarter
Nov 28
Full
Dec 6
Last Quarter
Dec 13
New

Hourly Weather History & Observations

Time (EST) Temp. Windchill Dew Point Humidity Pressure Visibility Wind Dir Wind Speed Gust Speed Precip Events Conditions
12:15 AM 38.8 °F 33.8 °F 30.7 °F 73% 30.48 in 3.0 mi ESE 6.9 mph - N/A   Haze
12:35 AM 39.0 °F 34.8 °F 30.2 °F 71% 30.47 in 5.0 mi ESE 5.8 mph - N/A   Haze
12:55 AM 39.2 °F 34.2 °F 30.0 °F 70% 30.47 in 5.0 mi ESE 6.9 mph - N/A   Haze
1:15 AM 39.2 °F 34.2 °F 30.0 °F 70% 30.46 in 3.0 mi ESE 6.9 mph - N/A   Haze
1:35 AM 38.8 °F 35.4 °F 29.7 °F 70% 30.46 in 4.0 mi ESE 4.6 mph - N/A   Haze
1:55 AM 39.0 °F 35.7 °F 29.1 °F 68% 30.45 in 7.0 mi East 4.6 mph - N/A   Clear
2:15 AM 37.9 °F 35.5 °F 28.9 °F 70% 30.45 in 10.0 mi East 3.5 mph - N/A   Clear
2:35 AM 37.0 °F 31.0 °F 28.8 °F 72% 30.44 in 7.0 mi ESE 8.1 mph - N/A   Clear
2:55 AM 36.7 °F 32.0 °F 28.9 °F 74% 30.45 in 7.0 mi ESE 5.8 mph - N/A   Clear
3:15 AM 36.7 °F 32.9 °F 28.9 °F 74% 30.46 in 5.0 mi ESE 4.6 mph - N/A   Haze
3:35 AM 36.7 °F 34.1 °F 28.8 °F 73% 30.45 in 7.0 mi ENE 3.5 mph - N/A   Clear
3:55 AM 36.0 °F 33.3 °F 28.6 °F 75% 30.46 in 7.0 mi NE 3.5 mph - N/A   Clear
4:15 AM 33.4 °F 29.1 °F 28.8 °F 83% 30.45 in 10.0 mi ENE 4.6 mph - N/A   Clear
4:35 AM 33.4 °F 25.9 °F 28.4 °F 82% 30.45 in 7.0 mi East 9.2 mph - N/A   Clear
4:55 AM 35.4 °F 29.7 °F 29.1 °F 78% 30.45 in 7.0 mi East 6.9 mph - N/A   Clear
5:15 AM 35.2 °F 31.2 °F 28.8 °F 77% 30.45 in 7.0 mi East 4.6 mph - N/A   Clear
5:35 AM 34.0 °F 31.0 °F 28.2 °F 79% 30.46 in 10.0 mi ENE 3.5 mph - N/A   Clear
5:55 AM 33.3 °F 30.2 °F 28.4 °F 82% 30.47 in 10.0 mi ENE 3.5 mph - N/A   Clear
6:15 AM 32.5 °F 25.5 °F 28.0 °F 83% 30.46 in 5.0 mi East 8.1 mph - N/A   Clear
6:35 AM 32.5 °F 25.5 °F 28.4 °F 85% 30.46 in 3.0 mi East 8.1 mph - N/A Snow Light Snow
6:55 AM 32.5 °F 28.1 °F 28.2 °F 84% 30.46 in 7.0 mi East 4.6 mph - N/A   Clear
7:15 AM 32.0 °F 27.5 °F 28.0 °F 85% 30.46 in 7.0 mi East 4.6 mph - N/A   Clear
7:35 AM 32.2 °F 26.7 °F 27.9 °F 84% 30.46 in 7.0 mi East 5.8 mph - N/A   Clear
7:55 AM 32.5 °F 29.3 °F 27.7 °F 82% 30.46 in 7.0 mi East 3.5 mph - N/A   Clear
8:15 AM 32.2 °F 28.9 °F 27.7 °F 83% 30.47 in 7.0 mi ENE 3.5 mph - N/A   Clear
8:35 AM 32.9 °F 29.8 °F 28.2 °F 83% 30.46 in 7.0 mi East 3.5 mph - N/A   Clear
8:55 AM 33.6 °F 30.6 °F 28.8 °F 82% 30.46 in 7.0 mi ENE 3.5 mph - N/A   Clear
9:15 AM 36.1 °F 33.5 °F 29.1 °F 76% 30.46 in 7.0 mi East 3.5 mph - N/A   Clear
9:35 AM 37.4 °F 34.9 °F 30.0 °F 75% 30.46 in 7.0 mi East 3.5 mph - N/A   Clear
9:55 AM 39.9 °F 37.8 °F 30.2 °F 68% 30.46 in 7.0 mi East 3.5 mph - N/A   Clear
10:15 AM 42.3 °F 40.5 °F 30.4 °F 63% 30.46 in 5.0 mi ESE 3.5 mph - N/A   Haze
10:35 AM 44.2 °F 42.7 °F 31.1 °F 60% 30.46 in 7.0 mi ESE 3.5 mph - N/A   Clear
10:55 AM 45.5 °F 43.2 °F 31.3 °F 58% 30.46 in 7.0 mi SE 4.6 mph - N/A   Clear
11:15 AM 47.3 °F - 31.8 °F 55% 30.46 in 5.0 mi SE 3.5 mph - N/A   Haze
11:35 AM 48.9 °F - 31.6 °F 51% 30.46 in 7.0 mi SE 3.5 mph - N/A   Clear
11:55 AM 50.0 °F - 31.8 °F 50% 30.45 in 7.0 mi Calm Calm - N/A   Clear
12:15 PM 51.1 °F - 32.4 °F 49% 30.44 in 7.0 mi Calm Calm - N/A   Clear
12:35 PM 52.2 °F - 32.0 °F 46% 30.43 in 7.0 mi Calm Calm - N/A   Clear
12:55 PM 53.1 °F - 31.6 °F 44% 30.42 in 5.0 mi SE 4.6 mph - N/A   Haze
1:15 PM 53.2 °F - 31.8 °F 44% 30.41 in 3.0 mi Calm Calm - N/A   Haze
1:35 PM 54.0 °F - 31.3 °F 42% 30.41 in 0.8 mi Calm Calm - N/A   Haze
1:55 PM 55.0 °F - 31.6 °F 41% 30.40 in 1.5 mi Calm Calm - N/A   Haze
2:15 PM 55.8 °F - 31.1 °F 39% 30.39 in 3.0 mi Calm Calm - N/A   Haze
2:35 PM 56.1 °F - 30.9 °F 38% 30.39 in 2.5 mi Calm Calm - N/A   Haze
2:55 PM 57.0 °F - 29.1 °F 35% 30.38 in 2.5 mi SE 4.6 mph - N/A   Haze
3:15 PM 56.5 °F - 30.0 °F 36% 30.38 in 2.5 mi ESE 3.5 mph - N/A   Haze
3:35 PM 56.8 °F - 30.9 °F 37% 30.38 in 2.0 mi East 5.8 mph - N/A   Haze
3:55 PM 57.6 °F - 30.7 °F 36% 30.38 in 2.5 mi SE 4.6 mph - N/A   Haze
4:15 PM 57.2 °F - 30.9 °F 37% 30.38 in 2.5 mi ESE 3.5 mph - N/A   Haze
4:35 PM 57.2 °F - 30.0 °F 36% 30.37 in 3.0 mi ESE 5.8 mph - N/A   Haze
4:55 PM 56.5 °F - 31.1 °F 38% 30.37 in 4.0 mi ESE 5.8 mph - N/A   Haze
5:15 PM 56.1 °F - 30.4 °F 38% 30.37 in 3.0 mi East 4.6 mph - N/A   Haze
5:35 PM 53.1 °F - 32.9 °F 46% 30.37 in 1.2 mi ENE 6.9 mph - N/A   Haze
5:55 PM 50.7 °F - 32.4 °F 49% 30.38 in 2.0 mi ENE 6.9 mph - N/A   Haze
6:15 PM 50.0 °F - 31.6 °F 49% 30.38 in 2.5 mi ENE 4.6 mph - N/A   Haze
6:35 PM 49.5 °F - 30.9 °F 49% 30.38 in 4.0 mi East 5.8 mph - N/A   Haze
7:15 PM 46.9 °F - 31.5 °F 55% 30.39 in 3.0 mi East 4.6 mph - N/A   Haze
7:35 PM 45.9 °F 43.6 °F 31.3 °F 57% 30.39 in 4.0 mi East 4.6 mph - N/A   Haze
7:55 PM 45.3 °F 43.0 °F 30.9 °F 57% 30.39 in 2.5 mi ESE 4.6 mph - N/A   Haze
8:15 PM 45.3 °F 42.3 °F 30.7 °F 57% 30.40 in 3.0 mi ESE 5.8 mph - N/A   Haze
8:35 PM 44.6 °F 41.4 °F 30.6 °F 58% 30.40 in 2.5 mi ESE 5.8 mph - N/A   Haze
8:55 PM 43.3 °F 39.9 °F 30.2 °F 60% 30.39 in 2.5 mi ESE 5.8 mph - N/A   Haze
9:15 PM 43.0 °F 40.3 °F 30.2 °F 61% 30.39 in 2.0 mi East 4.6 mph - N/A   Haze
9:35 PM 41.7 °F 38.0 °F 30.2 °F 64% 30.39 in 2.0 mi ESE 5.8 mph - N/A   Haze
9:55 PM 41.2 °F 38.2 °F 30.2 °F 65% 30.39 in 1.8 mi ESE 4.6 mph - N/A   Haze
10:15 PM 41.5 °F 38.6 °F 29.7 °F 63% 30.39 in 2.0 mi East 4.6 mph - N/A   Haze
10:35 PM 40.5 °F 36.5 °F 29.5 °F 65% 30.39 in 2.0 mi East 5.8 mph - N/A   Haze
10:55 PM 39.4 °F 34.5 °F 29.5 °F 68% 30.38 in 1.8 mi ESE 6.9 mph - N/A   Haze
11:15 PM 39.2 °F 35.9 °F 29.3 °F 68% 30.38 in 1.5 mi ESE 4.6 mph - N/A   Haze
11:35 PM 39.0 °F 34.0 °F 28.6 °F 66% 30.37 in 2.0 mi ESE 6.9 mph - N/A   Haze
11:55 PM 37.8 °F 33.3 °F 27.9 °F 67% 30.37 in 2.5 mi ESE 5.8 mph - N/A   Haze